Skip Page Navigation
NASA JPL Caltech
NASA Logo - Jet Propulsion Laboratory + View the NASA Portal
+ Center for Near-Earth Object Studies
JPL Home Earth Solar System Stars & Galaxies Technology
JPL Solar System Dynamics
BODIES ORBITS EPHEMERIDES TOOLS PHYSICAL DATA DISCOVERY FAQ SITE MAP
IMPORTANT: The SSD Announcement email list is now available. Major changes are coming in the near future, including possible hostname and/or URL changes. To be notified of such changes, subscribe to this email list.

Please visit this page for more details.


JPL Small-Body Database Browser
Search: [ help ]  
434547 (2005 TL65)
Classification: Main-belt Asteroid          SPK-ID: 2434547
Ephemeris | Orbit Diagram | Orbital Elements | Mission Design | Physical Parameters | Discovery Circumstances ]

[ show orbit diagram ]
Orbital Elements at Epoch 2458600.5 (2019-Apr-27.0) TDB
Reference: JPL 10 (heliocentric ecliptic J2000)
 Element Value Uncertainty (1-sigma)   Units 
e .1258745387209857 1.0086e-07  
a 2.338179951581812 2.0243e-08 au
q 2.043862628729795 2.4635e-07 au
i 1.177509590104275 8.0697e-06 deg
node 339.7630388622351 0.00026092 deg
peri 336.2437417773602 0.00026745 deg
M 333.2907886122341 4.5373e-05 deg
tp 2458697.388869812459
(2019-Aug-01.88886981)
0.00016381 TDB
period 1305.916248371969
3.58
1.6959e-05
4.643e-08
d
yr
n .2756685204344437 3.5799e-09 deg/d
Q 2.632497274433829 2.2791e-08 au
  Orbit Determination Parameters
   # obs. used (total)      97  
   data-arc span      5079 days (13.91 yr)  
   first obs. used      2005-10-01  
   last obs. used      2019-08-28  
   planetary ephem.      DE431  
   SB-pert. ephem.      SB431-N16  
   condition code      0  
   norm. resid. RMS      .60311  
   source      ORB  
   producer      Otto Matic  
   solution date      2019-Nov-08 15:40:55  

Additional Information
 Earth MOID = 1.02945 au 
 Jupiter MOID = 2.61304 au 
 T_jup = 3.555 
[ show covariance matrix ]

Ephemeris | Orbit Diagram | Orbital Elements | Mission Design | Physical Parameters | Discovery Circumstances ]

Physical Parameter Table
Parameter Symbol Value Units Sigma Reference Notes
absolute magnitude H 18.6   n/a MPO440802  

434547 (2005 TL65)          Discovered 2005-Oct-01 by Spacewatch at Kitt Peak
Reference: Last Updated: 2015-06-04

Alternate Designations
 2005 TL65 = 2011 FA92 
Ephemeris | Orbit Diagram | Orbital Elements | Mission Design | Physical Parameters | Discovery Circumstances ]
ABOUT SSD CREDITS/AWARDS PRIVACY/COPYRIGHT GLOSSARY LINKS
FirstGov
(server date/time)  
NASA Home Page
Site Manager:   Ryan S. Park
Webmaster  Alan B. Chamberlin